Location: Unspecified
(40.7945°N, 0.0000°E)
Time: 06:36:31
(UTC+00:00)

STRAND 1 - Visible Passes

Search period start: 18 July 2019 00:00
Search period end: 28 July 2019 00:00
Orbit: 768 x 781 km, 98.5° (Epoch: 17 July)

Date Brightness Start Highest point End Pass type
(mag) Time Alt. Az. Time Alt. Az. Time Alt. Az.
18 Jul ? 20:37:51 10° N 20:42:07 27° WNW 20:46:21 10° WSW visible
19 Jul ? 20:03:22 10° N 20:08:21 55° WNW 20:13:19 10° SSW visible
20 Jul ? 21:10:13 10° NNW 21:12:58 15° WNW 21:15:42 10° W visible
21 Jul ? 20:35:01 10° N 20:39:22 29° WNW 20:43:41 10° SW visible
22 Jul ? 20:00:34 10° N 20:05:35 58° WNW 20:10:35 10° SSW visible
23 Jul ? 21:07:18 10° NNW 21:10:14 16° WNW 21:13:09 10° W visible
24 Jul ? 20:32:12 10° N 20:36:37 30° WNW 20:41:00 10° SW visible
25 Jul ? 19:57:46 10° N 20:02:49 62° WNW 20:07:50 10° SSW visible
26 Jul ? 21:04:23 10° NNW 21:07:29 16° WNW 21:10:35 10° W visible
27 Jul ? 20:29:22 10° N 20:33:51 32° WNW 20:38:19 10° SW visible
